Weather History for LIVP - October, 2011

Change the Weather History Date:

Friday, October 7, 2011

  Actual Average Record
Temperature  
Mean Temperature 30 °F -  
Max Temperature 34 °F 41 °F 51 °F (2010)
Min Temperature 26 °F 33 °F 26 °F (1999)
Degree Days  
Heating Degree Days 35    
Moisture  
Dew Point 30 °F    
Average Humidity 83    
Maximum Humidity 100    
Minimum Humidity 37    
Precipitation  
Precipitation 0.24 in 0.09 in - ()
Sea Level Pressure  
Sea Level Pressure 29.77 in    
Wind  
Wind Speed 19 mph ()    
Max Wind Speed 30 mph    
Max Gust Speed 43 mph    
Visibility 1.5 miles    
Events Fog , Rain , Snow , Hail , Thunderstorm    
Averages and records for this station are not official NWS values.
T = Trace of Precipitation, MM = Missing Value Source: Averaged Metar Reports

Daily Weather History Graph

Daily Weather History Graph

Search for Another Location

Airport or City:

Trip Planner

Search our weather history database for the weather conditions in past years. The results will help you decide how hot, cold, wet, or windy it might be!

Date:

Astronomy

Oct. 07, 2011 Rise Set
Actual Time 7:21 AM CEST 6:45 PM CEST
Civil Twilight 6:51 AM CEST 7:15 PM CEST
Nautical Twilight 6:16 AM CEST 7:49 PM CEST
Astronomical Twilight 5:41 AM CEST 8:24 PM CEST
Moon 4:31 PM CEST (10/7) 2:39 AM CEST (10/7)
Length of Visible Light 12h 23m
Length of Day
11h 23m
Waxing Gibbous, 81% of the Moon is Illuminated
Oct 7
Waxing Gibbous
Oct 12
Full
Oct 20
Last Quarter
Oct 26
New
Nov 2
First Quarter

Hourly Weather History & Observations

Time (CEST) Temp. Windchill Dew Point Humidity Pressure Visibility Wind Dir Wind Speed Gust Speed Precip Events Conditions
12:55 AM 44.6 °F 35.9 °F 44.6 °F 100% 29.98 in 0.0 mi SSW 23.0 mph 35.7 mph N/A Fog Fog
1:55 AM 44.6 °F 37.4 °F 44.6 °F 100% 29.92 in 0.0 mi SSE 16.1 mph 29.9 mph N/A Fog , Rain Light Rain
2:00 AM 45 °F - 45 °F 98%  in 0 mi SSE 16.1 mph - - Rain Light Rain
2:55 AM 44.6 °F 38.1 °F 44.6 °F 100% 29.89 in 0.0 mi South 13.8 mph - N/A Fog , Rain Light Rain
3:55 AM 44.6 °F 37.8 °F 44.6 °F 100% 29.83 in 0.0 mi SSE 15.0 mph 28.8 mph N/A Fog , Rain Rain
4:55 AM 42.8 °F 33.8 °F 42.8 °F 100% 29.77 in 0.0 mi South 21.9 mph 40.3 mph N/A Fog , Rain Rain
5:00 AM 44 °F - 44 °F 97%  in 0 mi South 21.9 mph - - Rain Rain
5:55 AM 42.8 °F 34.8 °F 42.8 °F 100% 29.74 in - South 17.3 mph 42.6 mph N/A Fog , Rain Light Rain
6:55 AM 42.8 °F 38.0 °F 42.8 °F 100% 29.74 in - WNW 8.1 mph 24.2 mph N/A Fog , Rain Rain
7:11 AM 35.6 °F 23.4 °F 35.6 °F 100% 29.71 in 0.0 mi North 25.3 mph 36.8 mph N/A Fog , Rain , Hail , Thunderstorm Heavy Thunderstorms and Rain
7:55 AM 33.8 °F 20.3 °F 33.8 °F 100% 29.71 in 0.0 mi North 28.8 mph - N/A Fog , Rain , Hail , Thunderstorm Thunderstorms and Rain
8:00 AM 34 °F - 34 °F 99%  in 0 mi North 28.8 mph - - Hail , Thunderstorm Thunderstorms with Hail
8:55 AM 32.0 °F 18.6 °F 32.0 °F 100% 29.71 in 0.1 mi North 25.3 mph 39.1 mph N/A Fog , Snow Light Snow
9:55 AM 32.0 °F 18.4 °F 32.0 °F 100% 29.74 in 0.1 mi North 26.5 mph - N/A Fog , Snow Light Snow
10:55 AM 30.2 °F 15.2 °F 30.2 °F 100% 29.65 in - North 29.9 mph - N/A Fog Light Freezing Fog
11:55 AM 30.2 °F 15.4 °F 30.2 °F 100% 29.68 in 0.3 mi North 28.8 mph - N/A Fog Light Freezing Fog
1:55 PM 32.0 °F 19.2 °F 24.8 °F 75% 29.68 in 6.2 mi North 23.0 mph 38.0 mph N/A   Scattered Clouds
2:00 PM 31 °F - 26 °F 73%  in 25 mi North 23.0 mph - -   Partly Cloudy
2:55 PM 30.2 °F 17.1 °F 19.4 °F 64% 29.71 in 6.2 mi North 21.9 mph 34.5 mph N/A   Partly Cloudy
5:00 PM 31 °F - 20 °F 53%  in 25 mi North 20.7 mph - -   Partly Cloudy
5:55 PM 30.2 °F 17.1 °F 15.8 °F 55% 29.77 in 6.2 mi NW 21.9 mph 38.0 mph N/A   Partly Cloudy
6:55 PM 28.4 °F 15.4 °F 12.2 °F 51% 29.77 in 6.2 mi North 19.6 mph 33.4 mph N/A   Partly Cloudy
7:55 PM 28.4 °F 14.7 °F 12.2 °F 51% 29.80 in - North 21.9 mph - N/A   Clear
8:00 PM 28 °F - 12 °F 37%  in 31 mi North 21.9 mph - -  
9:55 PM 28.4 °F 13.8 °F 15.8 °F 59% 29.80 in - North 25.3 mph - N/A   Clear
10:55 PM 26.6 °F 13.1 °F 17.6 °F 69% 29.80 in - North 19.6 mph - N/A   Clear
11:55 PM 26.6 °F 13.4 °F 15.8 °F 64% 29.83 in - North 18.4 mph - N/A   Clear